www.pogodaiklimat.ru

АРХИВ ПОГОДЫ в Сан-Франциско

Время (UTC), дата Ветер
(напр.,м/с)
 
Видим.   Явления Облачность Т
(С)
Тd
(С)
f
(%)
Тe
(С)
Тes
(С)
Комфортность

P
(гПа)

Po
(гПа)
Тmin
(С)
Tmax
(С)
R
(мм)
SD
(см)
04:56 20.10 Ю  16 км    10/10 240 м  +17.2  +14.4  84  +16  +16      1011.4         
05:56 20.10 Ю  9
{12} 
16 км    8/8 240 м  +17.2  +13.9  81  +16  +16    1011.3  1010.7  +16.1  +17.2     
06:36 20.10 З  10
{17} 
5 км  дождь, дымка  10/10 240 м  +13.3  +11.1  87  +10  +10               
06:56 20.10 З   11
{17} 
5 км  дождь, дымка  10/10 240 м  +12.8  +11.1  89  +9  +9    1012.8  1012.4         
07:12 20.10 З  10
{16} 
4 км  дождь, дымка  10/10 240 м  +12.2  +10.6  90  +8  +8               
07:54 20.10 З  8
{13} 
5 км  слабый дождь, дымка  10/10 240 м  +12.0  +11.0  94  +8  +8      1013.1         
07:56 20.10 З  8
{13} 
5 км  слабый дождь, дымка  10/10 240 м  +12.2  +11.1  93  +9  +9    1013.8  1013.4         
08:56 20.10 З   16 км    10/5 240 м
[средняя] 
+12.2  +10.6  90  +10  +10      1014.1      5.3   
09:56 20.10 З  16 км    8/8 300 м  +12.8  +10.6  86  +10  +10    1014.9  1014.4         
10:56 20.10 З  16 км    10/10 360 м  +13.0  +11.0  88  +11  +11    1015.7  1015.4         
11:56 20.10 З   16 км    5/5 300 м  +13.0  +11.0  88  +10  +10    1016.1  1015.8  +12.2  +17.2  5.3   
12:56 20.10 З  16 км    ясно  +12.8  +10.6  86  +11  +11    1016.9  1016.5         
13:56 20.10 ЮЗ  16 км    8/2 300 м
[средняя] 
+12.8  +10.0  83  +11  +11    1017.0  1016.5         
14:29 20.10 ЮЗ  16 км    8/8 300 м
[средняя] 
+12.8  +10.0  83  +11  +11      1017.1         
14:56 20.10 З  16 км    8/8 300 м
[средняя] 
+13.0  +10.0  82  +12  +12    1017.6  1017.1         
15:56 20.10 ЮЗ  16 км    8/8 1200 м  +13.9  +10.0  77  +13  +13    1018.5  1018.1         
16:56 20.10 ЮЗ  16 км    8/5 1260 м
[средняя] 
+15.0  +9.4  69  +14  +14    1019.1  1018.5         
17:56 20.10 СЗ  16 км    8/8 1200 м
[средняя] 
+16.0  +9.0  63  +15  +16    1019.4  1019.2  +12.2       
18:56 20.10 З  16 км    8/5 900 м
[средняя] 
+16.1  +7.2  56  +15  +16    1019.7  1019.2         
19:56 20.10 З   6
{8} 
16 км    8/2 900 м
[средняя] 
+16.7  +7.2  53  +15  +16    1019.7  1019.5         
20:56 20.10 З   10
{13} 
16 км    8/2 1200 м
[средняя] 
+17.0  +7.0  52  +15  +15    1019.9  1019.5         
21:56 20.10 З   16 км    8/2 750 м
[средняя] 
+17.0  +7.0  52  +16  +16    1019.4  1019.2         
22:56 20.10 З  16 км    8/2 750 м
[средняя] 
+16.0  +7.0  55  +14  +14    1020.0  1019.5         
23:56 20.10 З  16 км    8/2 690 м
[средняя] 
+16.0  +8.0  59  +14  +15    1020.0  1019.5  +15.6  +17.8     
00:56 21.10 З  16 км    8/2 600 м
[средняя] 
+15.0  +9.0  67  +13  +13    1019.9  1019.5         
01:56 21.10 З  16 км    5/2 510 м
[средняя] 
+14.0  +9.0  72  +11  +11    1020.3  1019.8         
02:56 21.10 З   16 км    2/0 6000 м
[средняя] 
+13.9  +8.9  72  +11  +11    1020.3  1019.8         
03:56 21.10 З  16 км    2/2 240 м
[средняя] 
+13.3  +9.4  77  +10  +10      1020.2         
04:56 21.10 З  16 км    5/2 240 м
[средняя] 
+13.3  +9.4  77  +11  +11    1021.1  1020.5         
05:56 21.10 З   16 км    8/2 240 м
[средняя] 
+13.0  +9.0  77  +10  +10    1021.6  1021.2  +12.8       
06:56 21.10 З  16 км    5/2 240 м
[средняя] 
+12.8  +8.3  74  +11  +11    1022.2  1021.9         
07:56 21.10 З  16 км    5/2 240 м
[средняя] 
+12.0  +8.0  76  +10  +10    1022.1  1021.9         
08:56 21.10 З  16 км    2/2 210 м
[средняя] 
+12.0  +9.0  82  +10  +10    1021.7  1021.2         
09:56 21.10 З  16 км    2/2 210 м
[средняя] 
+11.7  +8.3  80  +10  +10    1022.4  1021.9         
10:56 21.10 З  16 км    2/2 210 м  +11.7  +8.3  80  +10  +10    1022.4  1021.9         
11:56 21.10 З  16 км    2/2 210 м  +11.1  +8.3  83  +9  +9    1022.5  1022.2         
12:56 21.10 СЗ  14 км    2/2 210 м  +11.1  +8.3  83  +9  +9    1023.0  1022.5         
13:56 21.10 З  16 км    2/0 6000 м
[средняя] 
+11.1  +8.3  83  +9  +9    1023.5  1023.2         
14:56 21.10 З  16 км    5/0 6000 м
[средняя] 
+11.7  +8.3  80  +10  +10    1023.9  1023.6         
15:56 21.10 штиль  16 км    5/0 6000 м
[средняя] 
+13.9  +7.2  64  +14  +14    1024.2  1023.9         
16:56 21.10 нст  16 км    2/0 6000 м
[средняя] 
+14.4  +8.9  70  +14  +15    1024.6  1024.2         
17:56 21.10 СВ  16 км    2/2 630 м  +15.0  +8.9  67  +15  +18    1024.9  1024.6         
18:56 21.10 СВ  16 км    2/0 6000 м
[средняя] 
+15.6  +8.3  62  +15  +20    1024.9  1024.6         
19:56 21.10 СЗ  16 км    2/0 6000 м
[средняя] 
+17.2  +8.3  56  +17  +22    1024.8  1024.6         
20:56 21.10 З  16 км    2/0 6000 м
[средняя] 
+18.9  +5.0  40  +19  +21    1024.1  1023.6         
21:56 21.10 З   16 км    2/0 6000 м
[средняя] 
+19.4  +6.7  44  +19  +21    1023.9  1023.6         
22:56 21.10 СЗ  16 км    2/0 6000 м
[средняя] 
+19.4  +7.8  47  +20  +22    1023.8  1023.2         
23:56 21.10 З   16 км    2/0 6000 м
[средняя] 
+18.3  +8.3  52  +18  +18    1024.1  1023.6         

 

Местоположение метеостанции San Francisco International Airport: широта 37.6196 долгота -122.3656 высота над уровнем моря 3 м.

В архиве по умолчанию представлена погода в Сан-Франциско за последние 1-2 суток. Обновление информации о фактической погоде в базе происходит ежечасно! Архивные данные за месяц целиком и за предыдущие месяцы Вы можете получить, выбрав интересующий диапазон дат из раскрывающегося списка и нажав кнопку "Ввод!".

Внимание! Архив погоды МЕТАР в базе сайта в настоящее время начинается c 1 января 2013 г. Нет смысла пытаться выбрать более раннюю дату.

Внимание! Время в таблицах - всемирное. Для получения местного времени необходимо прибавить поправку, которая в Сан-Франциско равна -8 ч.

Ветер - указаны скорость ветра в м/с и направление, откуда дует ветер: С - северный, СВ - северо-восточный, В - восточный, ЮВ - юго-восточный, Ю - южный, ЮЗ - юго-западный, З - западный, СЗ - северо-западный.
Видимость - горизонтальная дальность видимости в метрах или километрах. При видимости от 1 до 10 км при отсутствии осадков обычно наблюдается дымка, при ухудшении видимости до 1 км и менее - туман. В сухую погоду видимость может ухудшаться дымом, пылью или мглою.
Атмосферные явления - указаны явления, наблюдавшиеся в указанный момент времени.
Облачность - указаны через наклонную черту верхняя и нижняя облачность в баллах и высота нижней границы облаков в метрах. Внимание: облачность, как и прочие метеорологические величины в США измеряются автоматическими метеостанциями. Указанные значения в баллах носят условный характер и показывают процент времени, в течение которого, в среднем, лазерный луч высотомера отражался от облаков обратно.
T - Температура воздуха - температура, измеренная на высоте 2 м над землей.
Td - Температура точки росы - температура, при понижении до которой содержащийся в воздухе водяной пар достигнет насыщения.
f - Относительная влажность воздуха - влажноcть воздуха, измеренная на высоте 2 м над землей.
Te - Эффективная температура - температура, которую ощущает одетый по сезону человек в тени. Характеристика душности погоды. При расчете учитывается влияние влажности воздуха и скорости ветра на теплоощущения человека.
Tes - Эффективная температура на солнце - температура, которую ощущает человек, с поправкой на солнечный нагрев. Характеристика знойности погоды. Зависит от высоты солнца над горизонтом, облачности и скорости ветра. Ночью, в пасмурную погоду, а также при ветре 12 м/с и более поправка равна нулю.
P - Атмосферное давление - приведенное к уровню моря атмосферное давление.
Po - Атмосферное давление - измеренное на уровне метеостанции атмосферное давление.
Tmin - Минимальная температура - минимум температуры воздуха на высоте 2 м над землей.
Tmax - Максимальная температура - максимум температуры воздуха на высоте 2 м над землей.
R - Количество осадков - Количество выпавших осадков за 3 или 6 часов, мм.
SD - Снежный покров - Высота снежного покрова, см.